TimeCST,TemperatureF,Dew PointF,Humidity,Sea Level PressureIn,VisibilityMPH,Wind Direction,Wind SpeedMPH,Gust SpeedMPH,PrecipitationIn,Events,Conditions,WindDirDegrees,DateUTC
12:15 AM,21.2,17.6,86,29.76,10.0,NW,11.5,-,N/A,,Clear,310,2013-02-14 06:15:00
12:35 AM,19.4,17.6,93,29.76,10.0,North,11.5,-,N/A,,Clear,350,2013-02-14 06:35:00
12:55 AM,19.4,17.6,93,29.78,5.0,NNW,10.4,-,N/A,,Clear,340,2013-02-14 06:55:00
1:15 AM,17.6,15.8,93,29.79,7.0,NNW,10.4,-,N/A,,Clear,330,2013-02-14 07:15:00
1:35 AM,17.6,14.0,86,29.79,7.0,NNW,8.1,-,N/A,,Clear,330,2013-02-14 07:35:00
1:55 AM,17.6,14.0,86,29.80,10.0,NNW,8.1,-,N/A,,Clear,330,2013-02-14 07:55:00
2:15 AM,17.6,14.0,86,29.81,10.0,NNW,6.9,-,N/A,,Clear,330,2013-02-14 08:15:00
2:35 AM,10.4,8.6,92,29.81,7.0,NW,5.8,-,N/A,,Clear,320,2013-02-14 08:35:00
2:55 AM,14.0,12.2,93,29.81,7.0,NW,8.1,-,N/A,,Clear,320,2013-02-14 08:55:00
3:15 AM,10.4,8.6,92,29.82,7.0,NW,8.1,-,N/A,,Scattered Clouds,320,2013-02-14 09:15:00
3:35 AM,15.8,12.2,86,29.82,10.0,NW,6.9,-,N/A,,Mostly Cloudy,320,2013-02-14 09:35:00
3:55 AM,17.6,14.0,86,29.82,10.0,North,6.9,-,N/A,,Overcast,350,2013-02-14 09:55:00
4:15 AM,17.6,14.0,86,29.82,10.0,NNW,5.8,-,N/A,,Overcast,340,2013-02-14 10:15:00
4:35 AM,17.6,15.8,93,29.83,10.0,North,5.8,-,N/A,,Overcast,350,2013-02-14 10:35:00
4:55 AM,19.4,17.6,93,29.83,10.0,North,12.7,-,N/A,,Overcast,360,2013-02-14 10:55:00
5:55 AM,17.6,14.0,86,29.86,10.0,North,10.4,-,N/A,,Overcast,360,2013-02-14 11:55:00
6:15 AM,17.6,14.0,86,29.87,10.0,North,11.5,-,N/A,,Overcast,360,2013-02-14 12:15:00
6:35 AM,17.6,14.0,86,29.88,10.0,North,12.7,-,N/A,,Overcast,360,2013-02-14 12:35:00
6:55 AM,17.6,14.0,86,29.88,10.0,North,11.5,-,N/A,,Overcast,10,2013-02-14 12:55:00
7:15 AM,17.6,12.2,79,29.89,10.0,North,12.7,-,N/A,,Overcast,10,2013-02-14 13:15:00
7:35 AM,17.6,12.2,79,29.91,10.0,North,13.8,-,N/A,,Overcast,360,2013-02-14 13:35:00
7:55 AM,15.8,12.2,86,29.92,10.0,North,15.0,-,N/A,,Overcast,360,2013-02-14 13:55:00
8:15 AM,15.8,10.4,79,29.94,10.0,North,12.7,-,N/A,,Overcast,350,2013-02-14 14:15:00
8:35 AM,14.0,10.4,86,29.95,10.0,North,17.3,-,N/A,,Overcast,360,2013-02-14 14:35:00
8:55 AM,14.0,10.4,86,29.96,10.0,North,17.3,-,N/A,,Mostly Cloudy,360,2013-02-14 14:55:00
9:15 AM,14.0,10.4,86,29.97,10.0,North,16.1,23.0,N/A,,Scattered Clouds,360,2013-02-14 15:15:00
9:55 AM,14.0,8.6,79,30.00,10.0,North,15.0,20.7,N/A,,Clear,350,2013-02-14 15:55:00
10:15 AM,14.0,8.6,79,30.01,10.0,North,15.0,23.0,N/A,,Clear,350,2013-02-14 16:15:00
10:35 AM,12.2,8.6,85,30.02,10.0,North,18.4,-,N/A,,Clear,350,2013-02-14 16:35:00
10:55 AM,12.2,8.6,85,30.03,10.0,North,18.4,23.0,N/A,,Clear,350,2013-02-14 16:55:00
11:15 AM,12.2,8.6,85,30.05,7.0,North,24.2,-,N/A,,Clear,350,2013-02-14 17:15:00
11:35 AM,12.2,8.6,85,30.06,7.0,North,18.4,-,N/A,,Clear,350,2013-02-14 17:35:00
11:55 AM,12.2,6.8,79,30.08,7.0,North,18.4,25.3,N/A,,Scattered Clouds,350,2013-02-14 17:55:00
12:15 PM,12.2,6.8,79,30.08,5.0,North,18.4,25.3,N/A,,Scattered Clouds,350,2013-02-14 18:15:00
12:35 PM,14.0,8.6,79,30.09,10.0,North,20.7,25.3,N/A,,Clear,350,2013-02-14 18:35:00
12:55 PM,14.0,8.6,79,30.10,10.0,NNW,18.4,-,N/A,,Clear,340,2013-02-14 18:55:00
1:15 PM,14.0,8.6,79,30.11,7.0,NNW,18.4,23.0,N/A,,Scattered Clouds,330,2013-02-14 19:15:00
1:55 PM,12.2,6.8,79,30.12,7.0,NNW,19.6,26.5,N/A,,Clear,330,2013-02-14 19:55:00
2:15 PM,12.2,6.8,79,30.14,10.0,NNW,16.1,-,N/A,,Clear,330,2013-02-14 20:15:00
2:35 PM,12.2,6.8,79,30.15,7.0,NNW,17.3,21.9,N/A,,Clear,330,2013-02-14 20:35:00
2:55 PM,12.2,6.8,79,30.16,7.0,NNW,16.1,20.7,N/A,,Clear,340,2013-02-14 20:55:00
3:15 PM,12.2,6.8,79,30.17,10.0,NNW,17.3,-,N/A,,Clear,330,2013-02-14 21:15:00
3:35 PM,12.2,6.8,79,30.18,10.0,NNW,13.8,-,N/A,,Clear,330,2013-02-14 21:35:00
3:55 PM,12.2,6.8,79,30.19,10.0,NNW,17.3,21.9,N/A,,Clear,340,2013-02-14 21:55:00
4:15 PM,12.2,6.8,79,30.19,10.0,NNW,15.0,-,N/A,,Clear,340,2013-02-14 22:15:00
4:35 PM,12.2,5.0,73,30.21,10.0,NNW,17.3,24.2,N/A,,Clear,340,2013-02-14 22:35:00
4:55 PM,10.4,5.0,79,30.22,10.0,NNW,15.0,-,N/A,,Clear,330,2013-02-14 22:55:00
5:15 PM,10.4,5.0,79,30.23,10.0,NNW,13.8,-,N/A,,Clear,330,2013-02-14 23:15:00
5:35 PM,8.6,3.2,79,30.24,10.0,NNW,10.4,-,N/A,,Clear,330,2013-02-14 23:35:00
5:55 PM,5.0,1.4,85,30.24,10.0,NW,10.4,-,N/A,,Clear,320,2013-02-14 23:55:00
6:15 PM,5.0,-0.4,78,30.24,10.0,NW,10.4,-,N/A,,Clear,320,2013-02-15 00:15:00
6:35 PM,3.2,-0.4,85,30.25,10.0,NW,8.1,-,N/A,,Clear,310,2013-02-15 00:35:00
6:55 PM,1.4,-2.2,85,30.26,10.0,WNW,8.1,-,N/A,,Clear,300,2013-02-15 00:55:00
7:15 PM,-0.4,-5.8,78,30.26,10.0,WNW,6.9,-,N/A,,Clear,290,2013-02-15 01:15:00
7:35 PM,-0.4,-5.8,78,30.26,10.0,WNW,8.1,-,N/A,,Clear,300,2013-02-15 01:35:00
7:55 PM,-2.2,-5.8,85,30.26,10.0,WNW,6.9,-,N/A,,Clear,290,2013-02-15 01:55:00
8:15 PM,-4.0,-7.6,85,30.26,10.0,West,8.1,-,N/A,,Clear,280,2013-02-15 02:15:00
8:35 PM,-4.0,-7.6,85,30.26,10.0,WNW,8.1,-,N/A,,Clear,290,2013-02-15 02:35:00
8:55 PM,-5.8,-9.4,84,30.26,10.0,WNW,8.1,-,N/A,,Clear,290,2013-02-15 02:55:00
9:15 PM,-4.0,-7.6,85,30.25,10.0,WNW,5.8,-,N/A,,Clear,290,2013-02-15 03:15:00
9:55 PM,1.4,-4.0,78,30.26,10.0,WNW,8.1,-,N/A,,Overcast,290,2013-02-15 03:55:00
10:15 PM,-0.4,-5.8,78,30.26,10.0,West,5.8,-,N/A,,Scattered Clouds,280,2013-02-15 04:15:00
10:35 PM,-2.2,-5.8,85,30.26,10.0,West,6.9,-,N/A,,Scattered Clouds,280,2013-02-15 04:35:00
10:55 PM,-4.0,-7.6,85,30.26,10.0,West,5.8,-,N/A,,Mostly Cloudy,270,2013-02-15 04:55:00
11:15 PM,-2.2,-5.8,85,30.26,10.0,West,6.9,-,N/A,,Overcast,270,2013-02-15 05:15:00
11:35 PM,-2.2,-7.6,78,30.27,10.0,West,4.6,-,N/A,,Overcast,270,2013-02-15 05:35:00
11:55 PM,-0.4,-5.8,78,30.27,10.0,West,4.6,-,N/A,,Overcast,260,2013-02-15 05:55:00